CW2265 Weather Reports


Display with metric or nautical units.
time (UTC)temp
F
wind
direction
speed
MPH
gust
MPH
rain 1hr
in
rain 24hr
in
rain mn
in
humidity
%
barometer
mb
20180120084505 37 219 13.0 25.0 0.00 0.00 0.00 70 1004.9
20180120082009 37 232 14.0 28.0 0.00 0.00 0.00 68 1004.7
20180120081505 37 217 13.0 26.0 0.00 0.00 0.00 68 1004.7
20180120081008 37 230 15.0 26.0 0.00 0.00 0.00 68 1004.5
20180120080505 37 222 17.0 32.0 0.00 0.00 0.00 68 1004.5
20180120080009 37 234 14.0 33.0 0.00 0.00 0.00 67 1004.5
20180120075505 37 222 13.0 28.0 0.00 0.00 0.00 67 1004.7
20180120075010 37 236 16.0 33.0 0.00 0.00 0.00 67 1004.5
20180120074505 37 232 11.0 26.0 0.00 0.00 0.00 67 1004.5
20180120074008 37 227 16.0 30.0 0.00 0.00 0.00 66 1004.4
20180120073505 37 232 16.0 29.0 0.00 0.00 0.00 66 1004.4
20180120073010 37 221 13.0 25.0 0.00 0.00 0.00 66 1004.4
20180120072505 37 234 13.0 25.0 0.00 0.00 0.00 66 1004.4
20180120072009 37 227 13.0 25.0 0.00 0.00 0.00 65 1004.4
20180120071505 37 229 14.0 26.0 0.00 0.00 0.00 65 1004.4
20180120071008 38 224 13.0 30.0 0.00 0.00 0.00 65 1004.4
20180120070505 38 230 13.0 28.0 0.00 0.00 0.00 65 1004.4
20180120070009 38 230 13.0 32.0 0.00 0.00 0.00 64 1004.3
20180120065504 38 222 13.0 24.0 0.00 0.00 0.00 64 1004.3
20180120065009 38 227 13.0 26.0 0.00 0.00 0.00 64 1004.3
20180120064505 38 222 13.0 29.0 0.00 0.00 0.00 63 1004.3
20180120064008 38 225 18.0 33.0 0.00 0.00 0.00 63 1004.3
20180120063505 38 213 16.0 28.0 0.00 0.00 0.00 63 1004.0
20180120063010 38 230 14.0 26.0 0.00 0.00 0.00 63 1004.0
20180120062505 38 225 13.0 24.0 0.00 0.00 0.00 62 1004.0
20180120062018 38 222 14.0 24.0 0.00 0.00 0.00 62 1004.1
20180120061505 38 240 20.0 32.0 0.00 0.00 0.00 62 1003.9
20180120061008 38 222 18.0 35.0 0.00 0.00 0.00 62 1003.9
20180120060505 38 235 12.0 30.0 0.00 0.00 0.00 63 1003.9
20180120060009 38 225 16.0 30.0 0.00 0.00 0.00 63 1003.9
20180120055504 38 226 17.0 28.0 0.00 0.00 0.00 63 1003.9
20180120055009 37 225 13.0 35.0 0.00 0.00 0.00 63 1003.9
20180120054505 38 231 17.0 31.0 0.00 0.00 0.00 63 1003.9
20180120054008 37 221 18.0 31.0 0.00 0.00 0.00 63 1003.6
20180120053505 37 231 14.0 28.0 0.00 0.00 0.00 63 1003.6
20180120053010 37 233 16.0 26.0 0.00 0.00 0.00 63 1003.6
20180120052505 37 222 19.0 31.0 0.00 0.00 0.00 63 1003.6
20180120052009 37 220 17.0 26.0 0.00 0.00 0.00 63 1003.8
20180120051506 37 226 20.0 35.0 0.00 0.00 0.00 63 1003.8
20180120051008 37 223 16.0 26.0 0.00 0.00 0.00 63 1003.9
20180120050505 37 225 18.0 26.0 0.00 0.00 0.00 63 1003.8
20180120050009 38 218 16.0 30.0 0.00 0.00 0.00 63 1003.8
20180120045505 38 220 14.0 29.0 0.00 0.00 0.00 63 1003.8
20180120044008 38 221 20.0 35.0 0.00 0.00 0.00 62 1003.8
20180120043010 38 220 18.0 32.0 0.00 0.00 0.00 62 1004.1
20180120040505 37 224 14.0 26.0 0.00 0.00 0.00 63 1004.5
20180120040008 38 223 16.0 30.0 0.00 0.00 0.00 62 1004.5
20180120035506 38 222 13.0 30.0 0.00 0.00 0.00 62 1004.5
20180120035010 38 215 13.0 31.0 0.00 0.00 0.00 62 1004.9
20180120034506 38 225 18.0 30.0 0.00 0.00 0.00 61 1004.9
20180120034008 38 224 16.0 25.0 0.00 0.00 0.00 61 1005.3
20180120033505 38 232 18.0 35.0 0.00 0.00 0.00 61 1005.3
20180120033010 38 223 16.0 29.0 0.00 0.00 0.00 61 1005.3
20180120025505 38 225 16.0 28.0 0.00 0.00 0.00 62 1005.3
20180120025009 38 219 14.0 30.0 0.00 0.00 0.00 61 1005.3
20180120024504 38 224 17.0 31.0 0.00 0.00 0.00 61 1005.0
20180120024008 37 222 17.0 26.0 0.00 0.00 0.00 61 1005.0
20180120023505 37 224 13.0 26.0 0.00 0.00 0.00 61 1006.0
20180120023009 37 224 13.0 24.0 0.00 0.00 0.00 62 1006.0
20180120022505 37 225 14.0 29.0 0.00 0.00 0.00 62 1006.0
20180120022010 37 231 16.0 29.0 0.00 0.00 0.00 62 1006.0
20180120014505 36 216 12.0 30.0 0.00 0.00 0.00 65 1006.1
20180120014008 36 220 16.0 30.0 0.00 0.00 0.00 64 1006.2
20180120012009 36 235 14.0 35.0 0.00 0.00 0.00 65 1007.1
20180120011505 36 220 16.0 26.0 0.00 0.00 0.00 65 1007.1
20180120011008 36 212 13.0 26.0 0.00 0.00 0.00 65 1007.1
20180120010505 36 218 14.0 30.0 0.00 0.00 0.00 65 1007.1
20180120010010 36 232 16.0 35.0 0.00 0.00 0.00 65 1007.1
20180120001505 35 219 11.0 23.0 0.00 0.00 0.00 66 1007.6
20180120001009 35 225 13.0 23.0 0.00 0.00 0.00 66 1007.6
20180120000506 35 223 10.0 20.0 0.00 0.00 0.00 67 1007.6
20180120000010 35 214 9.0 26.0 0.00 0.00 0.00 67 1007.6
20180119235509 35 222 10.0 23.0 0.00 0.00 0.00 67 1007.6
20180119235007 35 220 9.0 21.0 0.00 0.00 0.00 67 1007.6
20180119234506 35 213 10.0 20.0 0.00 0.00 0.00 67 1007.7
20180119234008 35 223 12.0 23.0 0.00 0.00 0.00 67 1008.2
20180119233505 35 228 13.0 22.0 0.00 0.00 0.00 67 1008.2
20180119233008 35 210 9.0 26.0 0.00 0.00 0.00 68 1008.2
20180119232505 35 213 12.0 22.0 0.00 0.00 0.00 68 1008.2
20180119232009 34 229 11.0 21.0 0.00 0.00 0.00 68 1008.2
20180119231505 34 222 7.0 16.0 0.00 0.00 0.00 69 1008.2
20180119231008 34 210 7.0 18.0 0.00 0.00 0.00 69 1008.2
20180119223505 34 222 12.0 23.0 0.00 0.00 0.00 70 1008.6
20180119223009 34 232 11.0 23.0 0.00 0.00 0.00 70 1008.7
20180119222504 34 217 12.0 22.0 0.00 0.00 0.00 69 1008.7
20180119222008 34 220 13.0 23.0 0.00 0.00 0.00 69 1008.7
20180119221505 34 216 9.0 23.0 0.00 0.00 0.00 69 1008.7
20180119221008 34 220 11.0 22.0 0.00 0.00 0.00 69 1008.6
20180119220505 34 223 12.0 23.0 0.00 0.00 0.00 69 1008.6
20180119220009 34 232 12.0 20.0 0.00 0.00 0.00 68 1008.6
20180119193009 34 230 12.0 20.0 0.00 0.00 0.00 67 1009.7
20180119191008 34 219 12.0 23.0 0.00 0.00 0.00 67 1010.1
20180119190505 34 218 11.0 20.0 0.00 0.00 0.00 67 1010.1
20180119190008 34 222 9.0 22.0 0.00 0.00 0.00 67 1010.2
20180119185009 34 222 7.0 18.0 0.00 0.00 0.00 68 1010.2
20180119174008 34 233 9.0 17.0 0.00 0.00 0.00 66 1011.8
20180119164009 33 252 9.0 17.0 0.00 0.00 0.00 67 1012.6
20180119163505 33 221 10.0 21.0 0.00 0.00 0.00 67 1012.6
20180119163009 33 228 10.0 20.0 0.00 0.00 0.00 66 1012.7
20180119162506 33 227 7.0 16.0 0.00 0.00 0.00 68 1012.7
20180119162009 33 222 9.0 13.0 0.00 0.00 0.00 68 1012.7
20180119161505 33 222 6.0 16.0 0.00 0.00 0.00 68 1012.7
20180119160504 32 218 9.0 17.0 0.00 0.00 0.00 69 1012.7
20180119155505 32 231 12.0 20.0 0.00 0.00 0.00 68 1012.8
20180119155008 32 222 10.0 17.0 0.00 0.00 0.00 70 1012.7
20180119154505 32 221 7.0 16.0 0.00 0.00 0.00 69 1012.9
20180119154010 32 226 8.0 17.0 0.00 0.00 0.00 70 1012.9
20180119153506 32 218 7.0 20.0 0.00 0.00 0.00 70 1012.9
20180119145506 31 212 4.0 13.0 0.00 0.00 0.00 71 1012.9
20180119134505 28 226 5.0 12.0 0.00 0.00 0.00 76 1012.9
20180119120010 28 215 7.0 16.0 0.00 0.00 0.00 76 1013.2
20180119115009 28 228 7.0 15.0 0.00 0.00 0.00 76 1013.1
20180119114505 28 224 9.0 17.0 0.00 0.00 0.00 76 1012.9
20180119114008 28 233 6.0 12.0 0.00 0.00 0.00 76 1012.9
20180119113505 28 225 6.0 12.0 0.00 0.00 0.00 76 1012.9
20180119112505 28 235 7.0 15.0 0.00 0.00 0.00 76 1012.9
20180119112009 28 240 6.0 16.0 0.00 0.00 0.00 76 1012.9
20180119111506 28 223 6.0 12.0 0.00 0.00 0.00 76 1012.9
20180119111008 28 212 7.0 18.0 0.00 0.00 0.00 76 1012.9
20180119110505 28 220 6.0 12.0 0.00 0.00 0.00 76 1013.1
20180119110009 28 222 5.0 10.0 0.00 0.00 0.00 76 1013.1
20180119105505 28 224 6.0 13.0 0.00 0.00 0.00 76 1013.1
20180119105009 28 213 6.0 12.0 0.00 0.00 0.00 76 1013.3
20180119104505 28 226 6.0 12.0 0.00 0.00 0.00 76 1013.3
20180119104008 28 224 7.0 14.0 0.00 0.00 0.00 76 1013.3
20180119103505 28 222 5.0 13.0 0.00 0.00 0.00 76 1013.1
20180119103011 28 223 4.0 9.0 0.00 0.00 0.00 76 1013.3
20180119102505 28 229 5.0 14.0 0.00 0.00 0.00 76 1013.0
20180119101508 28 226 7.0 14.0 0.00 0.00 0.00 75 1013.0
20180119101008 28 227 3.0 12.0 0.00 0.00 0.00 75 1013.0
20180119100505 28 230 5.0 12.0 0.00 0.00 0.00 75 1013.1
20180119100009 28 222 6.0 14.0 0.00 0.00 0.00 75 1013.2
20180119095505 28 226 6.0 12.0 0.00 0.00 0.00 75 1013.2
20180119095009 28 233 5.0 12.0 0.00 0.00 0.00 75 1013.3
20180119094505 28 231 5.0 12.0 0.00 0.00 0.00 75 1013.3
20180119094008 28 221 6.0 12.0 0.00 0.00 0.00 75 1013.3
20180119093505 28 229 6.0 14.0 0.00 0.00 0.00 75 1013.3
20180119093009 28 232 6.0 12.0 0.00 0.00 0.00 75 1013.3
20180119092505 28 222 7.0 16.0 0.00 0.00 0.00 75 1012.9
20180119092009 28 228 7.0 15.0 0.00 0.00 0.00 75 1012.9
20180119091505 28 221 8.0 15.0 0.00 0.00 0.00 74 1012.9
20180119091008 28 223 9.0 16.0 0.00 0.00 0.00 74 1012.9
20180119090505 28 223 6.0 14.0 0.00 0.00 0.00 74 1012.9
20180119090010 28 236 6.0 14.0 0.00 0.00 0.00 74 1012.8
20180119085506 28 237 9.0 17.0 0.00 0.00 0.00 74 1012.8
20180119085009 28 229 6.0 17.0 0.00 0.00 0.00 74 1012.8